Wetbulb
57.74 56.99 57.67 57.52 56.27 56.04 56.08 55.60 55.34 55.40 55.71 56.10 56.28 56.51 57.49 57.40 57.68 58.08 58.37 58.05 57.93 58.53 58.17 57.90 57.38 57.84 52.09 45.62 44.90 52.07 57.35 57.45 56.51 55.99 52.45 50.19 47.76 46.65 40.94 41.62 42.98 41.16 42.23 44.45 45.58 44.64 44.95
57.66 57.50 56.98 57.14 57.26 56.31 55.64 55.54 55.07 54.85 55.00 55.37 55.87 56.43 57.11 56.99 57.01 57.25 57.91 57.64 57.70 58.28 57.53 57.45 57.19 56.92 48.06 40.09 49.91 51.97 53.10 54.24 53.67 53.20 51.51 51.02 48.69 48.79 45.26 42.75 41.66 42.51 42.66 43.01 44.22 43.89 44.18
56.18 56.86 55.89 56.12 56.68 56.54 56.65 56.15 55.19 54.67 54.82 55.24 55.73 56.40 56.12 56.53 56.43 56.80 57.45 57.42 57.32 57.76 56.57 57.05 56.89 51.37 45.65 43.41 50.31 51.21 51.58 52.51 53.28 52.70 50.15 51.83 51.24 47.36 46.21 42.84 45.13 43.74 40.57 41.59 41.99 42.55 42.30
56.03 55.93 55.87 55.67 55.50 55.67 55.81 55.93 55.84 55.47 55.06 55.04 55.02 55.18 55.83 55.62 55.86 55.96 56.85 56.99 56.98 57.53 56.02 56.67 56.57 47.67 40.74 50.97 51.16 51.02 50.41 51.71 53.36 53.53 52.21 52.58 52.55 48.78 46.27 45.99 43.12 40.19 39.85 35.19 39.30 40.87 42.37
55.98 56.24 55.95 55.90 55.30 55.46 55.19 55.35 55.07 55.30 55.18 54.69 54.35 54.38 54.38 54.86 54.83 55.07 56.15 56.57 56.61 56.76 56.51 56.50 46.79 44.35 39.67 51.43 47.25 49.61 49.56 49.07 50.54 51.59 52.57 52.84 50.46 46.44 45.19 40.63 37.50 36.53 31.47 33.16 36.20 40.76 40.47
55.24 55.61 55.57 55.57 55.32 55.35 55.53 55.14 54.33 54.52 54.59 54.52 54.20 53.62 53.38 53.78 54.07 55.33 55.75 56.01 54.69 54.01 52.76 54.18 49.78 39.79 42.62 42.20 46.59 49.90 50.92 49.73 47.88 48.05 46.45 45.40 44.18 40.52 40.29 38.22 29.98 30.90 30.65 32.21 32.96 37.44 37.91
55.36 55.13 54.85 54.75 55.06 55.08 54.81 55.14 54.70 53.97 53.67 53.58 53.82 53.42 53.21 52.96 52.95 54.73 52.16 45.46 40.94 39.49 42.34 39.87 39.69 40.45 43.02 46.69 49.39 46.83 49.98 48.36 46.91 44.51 38.43 40.80 37.70 34.51 36.75 38.24 38.33 36.86 33.47 31.37 34.02 38.14 37.71
54.62 54.63 54.29 54.38 54.63 54.39 54.82 54.25 54.47 54.18 54.18 53.80 52.98 52.98 53.22 53.18 52.92 53.82 48.47 41.37 40.71 42.49 36.22 42.30 43.12 43.65 45.62 46.92 43.11 45.42 49.50 42.75 40.15 36.27 39.67 37.69 32.78 37.32 39.51 39.54 37.97 36.78 34.65 31.57 34.08 37.17 36.86
54.74 54.22 54.13 54.15 54.37 54.60 54.05 53.97 53.77 53.87 54.18 53.70 53.09 52.97 53.08 53.02 53.26 48.47 43.96 42.95 47.69 45.94 36.48 39.14 43.45 42.57 43.71 45.72 41.71 42.57 45.64 44.01 39.84 36.60 36.43 34.11 35.14 40.16 38.17 37.23 35.45 34.75 33.36 31.89 32.05 35.79 36.72
54.91 54.35 53.97 53.61 54.12 54.52 54.80 54.25 54.48 54.57 54.00 53.61 53.16 52.91 53.16 52.58 46.85 44.40 43.09 47.32 47.97 43.61 27.80 32.16 38.95 42.66 45.28 44.95 39.68 46.56 47.46 43.44 40.08 35.11 35.85 35.45 38.79 37.41 35.98 35.51 36.04 30.66 36.75 36.35 34.21 32.60 29.02
55.08 54.27 54.00 53.67 53.35 53.84 54.27 54.42 54.12 54.39 54.19 54.01 53.55 52.99 52.91 51.56 42.61 42.31 45.65 47.81 45.99 39.86 14.53 33.46 38.67 47.35 44.66 40.58 40.56 42.08 48.14 44.15 36.98 36.90 37.23 32.33 35.46 36.25 35.55 35.35 37.42 34.45 38.92 37.09 34.97 31.70 30.78
54.93 54.10 53.72 53.13 53.25 53.00 53.46 54.18 54.16 54.29 54.80 54.54 54.28 53.20 52.50 48.84 47.08 45.00 47.37 44.59 41.01 26.41 13.54 30.94 39.05 38.13 38.37 39.91 40.07 42.29 43.05 44.73 43.61 38.80 37.65 36.23 40.08 38.98 37.54 38.97 38.75 39.75 36.42 35.68 33.67 30.17 25.42
55.61 54.80 54.00 53.21 53.03 53.05 52.69 53.13 53.69 53.94 54.65 54.74 54.41 53.14 51.62 48.19 41.98 46.67 45.63 40.68 27.19 18.01 30.77 30.14 32.22 36.96 36.52 35.23 37.46 38.65 37.21 37.16 34.98 31.54 31.38 34.10 34.81 39.58 40.22 35.33 34.96 36.49 33.04 26.94 26.05 25.25 23.78
55.95 55.37 54.99 53.99 53.46 53.03 52.60 52.53 52.92 53.61 54.43 54.38 54.20 51.99 49.97 48.58 46.24 45.63 40.73 33.02 18.96 27.07 28.42 33.91 33.20 33.91 32.50 35.68 35.72 36.85 35.24 33.25 36.98 35.25 32.72 29.56 23.58 34.04 37.60 36.32 33.53 34.39 33.05 24.69 20.15 20.73 24.01
56.67 55.85 55.36 54.62 53.25 53.01 52.70 52.52 52.75 54.19 54.26 54.06 52.11 43.65 44.86 45.96 46.83 42.72 37.03 23.99 25.40 27.32 31.81 32.25 32.84 28.37 29.52 32.86 33.92 34.84 33.26 31.02 32.64 35.59 30.07 30.02 28.19 35.67 37.45 37.42 36.05 33.51 30.53 33.48 25.59 22.21 22.26
56.85 56.14 55.56 55.01 53.58 53.11 52.65 52.60 53.53 53.65 54.03 53.70 45.50 41.50 43.60 46.86 45.72 40.29 33.98 31.91 29.66 32.92 34.81 33.70 27.99 29.03 26.60 29.30 29.49 30.12 28.71 32.54 32.85 36.66 35.19 33.79 27.78 34.44 37.52 38.57 38.39 34.66 35.53 28.78 28.35 20.99 19.81
54.83 56.72 55.99 55.37 54.37 53.84 53.14 52.39 53.48 53.29 53.64 51.23 42.73 39.52 43.88 45.89 43.15 37.75 28.69 30.32 31.62 36.18 36.66 33.11 29.61 28.70 29.28 29.43 29.85 28.28 28.06 31.97 33.85 33.91 33.66 32.36 30.28 30.98 37.25 33.50 33.21 35.39 31.76 30.88 29.98 29.35 23.96
52.71 53.69 56.31 55.65 54.39 53.55 53.39 52.95 53.35 53.08 52.47 46.70 40.70 34.96 43.30 43.79 35.36 31.62 30.42 31.71 37.89 34.52 35.97 35.21 33.53 32.46 30.02 29.60 29.37 29.67 28.81 31.03 35.76 35.42 31.18 32.36 30.80 27.51 31.51 35.28 37.46 35.34 32.71 32.02 27.47 24.87 25.87
51.65 52.59 53.61 55.75 54.46 53.47 53.29 53.39 53.46 53.01 52.11 41.31 38.66 37.37 43.02 41.62 30.56 30.86 31.75 32.86 35.09 34.15 34.26 34.11 33.10 34.30 32.30 29.73 27.59 30.56 32.24 35.04 36.41 34.26 31.56 32.37 27.50 25.30 28.09 31.90 32.89 31.91 34.03 32.00 28.51 26.76 22.93
50.02 51.48 52.21 53.11 54.67 53.58 53.14 53.35 53.71 53.21 52.18 42.52 36.06 31.97 37.41 37.66 34.82 32.45 30.50 31.00 31.38 35.33 33.63 34.85 33.29 32.46 30.16 28.03 29.89 28.67 30.21 35.30 34.52 34.25 40.67 35.92 28.48 27.21 24.00 26.79 31.96 30.28 29.28 31.47 30.03 23.21 23.19
49.48 49.93 51.56 52.71 53.65 53.95 53.07 53.14 53.67 53.64 52.72 43.26 35.86 33.96 36.30 31.60 33.77 32.05 32.44 31.09 30.03 29.61 33.71 33.71 30.95 31.72 29.59 25.37 26.46 26.46 28.22 31.16 34.11 35.74 33.44 31.22 25.91 25.20 27.74 28.71 28.38 28.48 29.96 27.98 28.60 30.15 23.51
48.96 48.89 50.17 51.53 52.64 54.08 53.10 52.80 53.63 53.52 52.48 44.17 37.04 34.05 33.08 32.24 31.49 31.33 33.45 30.52 30.47 30.52 31.58 29.74 30.24 31.05 30.43 27.74 28.59 25.80 28.31 27.50 27.64 31.79 28.15 29.43 26.40 26.59 24.64 27.36 27.54 27.74 28.93 27.50 27.61 26.29 25.48
48.74 48.48 49.22 50.09 52.10 52.28 53.18 52.52 53.47 53.47 50.43 41.30 38.78 36.67 35.82 34.54 29.82 29.88 31.87 32.14 32.43 33.21 32.90 33.12 32.31 30.40 29.34 31.22 31.97 31.36 32.52 31.91 30.23 28.18 28.51 27.11 25.70 24.07 21.90 25.28 26.22 23.58 26.50 27.54 27.76 27.53 27.77
48.14 47.81 48.45 49.28 51.27 51.52 52.81 52.48 53.23 53.47 50.28 42.15 38.66 37.94 34.51 31.23 30.87 31.72 33.58 33.93 33.49 32.90 30.85 33.24 33.68 30.99 32.28 34.17 33.15 31.11 29.44 30.70 30.22 29.68 29.95 26.12 25.34 24.64 21.39 23.63 17.30 26.26 27.46 29.52 28.77 29.30 28.73
47.75 47.87 48.17 48.72 50.44 51.08 51.63 52.61 53.02 53.64 52.10 42.92 39.68 39.15 35.73 31.35 32.91 32.37 33.73 34.20 33.37 33.27 32.71 33.58 34.34 33.90 33.84 31.34 28.65 27.07 25.68 25.47 27.56 29.69 28.40 27.90 25.57 23.04 20.99 20.13 24.26 25.59 27.38 28.32 27.69 27.64 31.08
48.93 48.58 49.25 49.24 49.47 50.14 51.07 52.51 53.13 53.78 52.87 45.26 40.11 40.89 37.08 32.41 32.90 34.94 34.02 34.36 32.46 30.85 30.98 32.72 33.99 34.49 32.61 29.35 27.67 22.85 22.37 22.69 23.51 24.50 28.30 28.75 27.16 25.24 21.88 20.03 19.60 26.32 28.13 30.43 29.87 27.06 31.51
48.09 48.33 47.97 48.39 48.90 49.64 50.36 52.01 53.05 53.58 52.59 45.31 41.95 41.90 38.13 33.56 35.33 36.30 34.32 34.16 35.70 33.13 32.15 31.60 32.33 31.11 31.60 27.51 26.07 23.79 23.75 25.03 22.47 21.65 23.79 24.64 23.97 22.59 22.91 21.11 25.22 28.60 29.48 30.63 24.17 28.69 31.43
45.89 46.65 46.98 47.04 48.07 49.51 49.61 51.84 52.63 53.39 51.87 46.69 42.58 41.59 39.96 35.02 35.85 37.80 37.27 34.97 34.82 35.03 32.62 32.96 32.75 31.09 28.61 26.87 26.13 25.42 24.89 24.14 22.11 23.29 23.53 25.12 22.69 22.00 22.62 20.45 20.78 30.35 30.14 26.78 31.44 30.38 31.87
50.46 51.28 51.25 48.60 48.02 49.31 49.26 51.93 52.67 52.59 51.49 49.19 42.51 42.71 42.59 37.52 36.69 37.85 36.70 36.76 36.55 36.52 36.24 34.38 33.18 32.54 32.84 28.34 26.49 26.58 26.43 23.00 22.54 23.34 24.74 25.45 27.55 26.11 27.07 27.62 31.06 31.30 30.42 31.44 32.80 33.39 32.41
MSLP
1023.97 1023.83 1023.75 1023.67 1023.62 1023.55 1023.46 1023.20 1023.02 1022.85 1022.69 1022.55 1022.36 1022.23 1022.18 1022.03 1021.84 1021.47 1021.19 1020.76 1020.46 1020.17 1019.71 1019.68 1019.71 1019.67 1019.60 1019.78 1019.36 1018.72 1018.32 1017.86 1017.40 1017.22 1017.71 1018.24 1018.43 1018.57 1018.72 1018.70 1018.73 1018.62 1018.12 1017.57 1016.89 1016.56 1016.08
1024.22 1024.13 1024.04 1023.85 1023.71 1023.60 1023.46 1023.32 1023.15 1022.97 1022.79 1022.45 1022.23 1022.11 1022.02 1021.91 1021.72 1021.43 1021.05 1020.69 1020.42 1019.89 1019.61 1019.66 1019.79 1019.80 1019.97 1019.88 1019.01 1018.81 1018.49 1018.04 1017.93 1017.82 1017.87 1018.23 1018.15 1018.29 1018.53 1018.50 1018.60 1018.21 1017.99 1017.62 1016.97 1016.41 1016.25
1024.49 1024.34 1024.25 1024.08 1023.87 1023.78 1023.59 1023.38 1023.17 1023.00 1022.75 1022.43 1022.17 1021.98 1021.85 1021.77 1021.63 1021.35 1020.90 1020.61 1020.25 1019.82 1019.56 1019.59 1019.68 1019.94 1020.05 1019.55 1018.80 1018.68 1018.55 1018.43 1018.27 1018.09 1018.12 1018.23 1018.29 1018.39 1018.34 1018.23 1018.12 1018.12 1018.07 1017.68 1017.01 1016.39 1016.09
1024.58 1024.46 1024.38 1024.27 1024.11 1023.92 1023.68 1023.44 1023.17 1022.95 1022.69 1022.50 1022.26 1021.98 1021.75 1021.64 1021.47 1021.23 1020.80 1020.39 1020.07 1019.73 1019.50 1019.53 1019.67 1020.00 1019.76 1018.82 1018.72 1018.71 1018.64 1018.38 1018.21 1018.15 1018.05 1018.05 1018.19 1018.41 1018.44 1018.24 1018.06 1018.35 1018.17 1017.99 1016.97 1016.49 1015.91
1024.53 1024.49 1024.49 1024.36 1024.21 1024.06 1023.80 1023.55 1023.30 1023.00 1022.74 1022.50 1022.34 1022.05 1021.69 1021.52 1021.34 1021.12 1020.61 1020.11 1019.74 1019.49 1019.44 1019.52 1019.94 1020.02 1019.61 1018.82 1018.88 1018.88 1018.84 1018.69 1018.48 1018.34 1018.20 1018.14 1018.36 1018.32 1018.52 1018.60 1018.62 1018.62 1018.37 1018.13 1017.56 1016.47 1015.96
1024.41 1024.40 1024.42 1024.32 1024.20 1024.05 1023.87 1023.65 1023.44 1023.15 1022.87 1022.57 1022.33 1022.10 1021.80 1021.48 1021.22 1020.85 1020.29 1019.79 1019.42 1019.41 1019.56 1019.70 1019.94 1020.40 1019.61 1019.38 1019.13 1018.88 1018.75 1018.73 1018.72 1018.66 1018.57 1018.55 1018.72 1018.74 1018.82 1018.67 1018.52 1018.81 1018.67 1018.14 1017.55 1016.49 1016.01
1024.25 1024.21 1024.19 1024.15 1024.03 1023.94 1023.79 1023.71 1023.48 1023.25 1022.97 1022.63 1022.28 1022.00 1021.77 1021.52 1021.17 1020.71 1020.42 1019.63 1020.08 1019.96 1019.74 1019.59 1019.55 1019.49 1019.29 1019.11 1019.02 1018.97 1018.80 1018.75 1018.89 1018.94 1018.97 1019.33 1019.19 1018.70 1018.65 1018.83 1018.95 1018.98 1018.76 1018.31 1017.38 1016.38 1016.15
1023.93 1023.94 1023.97 1023.90 1023.77 1023.75 1023.72 1023.64 1023.46 1023.26 1022.88 1022.59 1022.31 1021.95 1021.59 1021.37 1021.06 1020.70 1020.79 1020.35 1020.22 1020.34 1019.92 1019.27 1019.42 1019.45 1019.22 1019.11 1019.11 1018.79 1018.86 1019.15 1019.21 1019.32 1019.40 1019.70 1019.25 1018.90 1018.85 1018.64 1018.73 1018.78 1018.70 1018.35 1017.22 1016.14 1016.15
1023.62 1023.67 1023.62 1023.60 1023.53 1023.44 1023.44 1023.41 1023.29 1023.09 1022.85 1022.56 1022.26 1021.86 1021.44 1021.12 1020.84 1020.76 1020.56 1020.22 1020.16 1020.21 1020.48 1019.58 1019.17 1019.07 1019.18 1019.46 1019.03 1018.84 1018.82 1019.00 1019.08 1019.33 1019.48 1019.44 1018.99 1018.81 1018.85 1018.45 1018.40 1018.30 1018.26 1018.10 1017.44 1016.11 1015.77
1023.30 1023.35 1023.43 1023.37 1023.30 1023.17 1023.06 1023.06 1022.95 1022.86 1022.68 1022.48 1022.13 1021.74 1021.28 1021.00 1021.03 1020.79 1020.51 1020.01 1020.16 1020.25 1020.89 1019.75 1019.38 1019.01 1019.05 1019.19 1019.20 1018.76 1018.83 1018.95 1019.15 1019.28 1019.29 1019.09 1018.70 1018.73 1018.68 1018.42 1018.38 1018.06 1017.96 1017.68 1017.20 1016.87 1016.27
1023.07 1023.05 1023.12 1023.15 1023.02 1022.96 1022.84 1022.75 1022.69 1022.55 1022.47 1022.30 1022.00 1021.62 1021.26 1021.14 1021.05 1020.81 1020.52 1020.13 1020.18 1020.52 1021.05 1019.49 1018.98 1018.46 1018.75 1019.28 1019.03 1018.99 1018.94 1018.98 1019.03 1019.28 1019.59 1018.82 1018.54 1018.38 1018.01 1017.75 1018.10 1017.33 1017.15 1016.93 1017.06 1016.88 1016.44
1022.54 1022.74 1022.75 1022.83 1022.71 1022.66 1022.58 1022.48 1022.36 1022.25 1022.07 1021.93 1021.77 1021.58 1021.27 1021.27 1021.20 1020.46 1020.47 1020.27 1020.48 1021.14 1020.42 1019.02 1018.72 1018.67 1019.12 1019.09 1019.23 1019.30 1019.14 1019.14 1019.28 1019.12 1019.09 1018.73 1018.45 1018.21 1017.41 1017.28 1017.31 1017.10 1016.85 1017.04 1017.26 1017.06 1016.76
1022.01 1022.21 1022.29 1022.39 1022.38 1022.36 1022.25 1022.14 1022.03 1021.92 1021.71 1021.60 1021.48 1021.37 1021.29 1021.27 1020.86 1020.29 1020.58 1020.81 1021.44 1021.03 1019.90 1019.08 1018.64 1018.75 1018.86 1018.70 1018.95 1019.24 1019.16 1019.02 1018.96 1019.13 1018.62 1018.13 1017.82 1017.08 1017.04 1017.25 1017.36 1017.36 1017.09 1017.19 1017.54 1017.30 1016.95
1021.42 1021.63 1021.81 1021.92 1022.00 1022.04 1022.03 1021.88 1021.70 1021.46 1021.35 1021.25 1021.13 1021.10 1021.08 1020.84 1020.60 1020.52 1020.89 1021.23 1021.45 1020.37 1019.60 1018.68 1018.45 1018.36 1018.52 1018.18 1018.42 1018.70 1018.90 1018.49 1018.11 1018.58 1018.35 1017.90 1017.37 1016.71 1016.56 1016.61 1016.52 1016.80 1016.22 1016.63 1016.94 1017.47 1017.18
1020.80 1020.97 1021.19 1021.38 1021.46 1021.60 1021.71 1021.65 1021.43 1021.20 1021.02 1020.92 1020.75 1021.32 1021.56 1020.75 1020.68 1020.83 1021.12 1021.60 1020.28 1019.65 1019.06 1018.87 1018.22 1018.25 1018.00 1017.71 1017.98 1018.37 1018.29 1017.86 1017.40 1017.84 1017.90 1017.58 1017.13 1016.61 1016.33 1016.19 1016.32 1016.28 1016.33 1016.30 1016.71 1017.81 1017.36
1020.20 1020.26 1020.48 1020.76 1021.01 1021.10 1021.25 1021.33 1021.29 1021.03 1020.83 1020.57 1020.94 1021.54 1021.49 1020.94 1020.86 1021.24 1021.35 1020.73 1019.68 1018.83 1018.46 1018.61 1018.57 1018.21 1018.08 1017.56 1017.79 1017.92 1017.27 1016.72 1016.74 1016.89 1017.04 1017.11 1017.09 1016.70 1016.45 1016.37 1016.20 1016.10 1016.11 1016.43 1016.76 1017.34 1017.08
1019.99 1019.67 1019.73 1020.00 1020.37 1020.61 1020.77 1020.86 1020.92 1020.89 1020.65 1020.44 1020.92 1021.38 1021.38 1021.42 1021.32 1021.46 1021.14 1020.16 1018.98 1018.20 1018.07 1018.36 1018.31 1018.21 1017.98 1017.70 1017.37 1017.23 1016.72 1016.31 1016.26 1016.52 1016.87 1016.90 1016.92 1016.94 1016.59 1016.40 1016.36 1016.45 1016.35 1016.55 1016.64 1016.96 1017.03
1019.83 1019.55 1019.14 1019.21 1019.58 1019.93 1020.25 1020.43 1020.42 1020.47 1020.49 1020.51 1020.94 1021.65 1021.42 1021.82 1022.11 1021.45 1020.56 1019.14 1018.21 1017.78 1017.83 1017.97 1018.02 1017.93 1017.80 1017.53 1017.24 1016.88 1016.39 1015.96 1015.81 1016.09 1016.51 1016.33 1016.61 1016.89 1016.52 1016.32 1016.48 1016.48 1016.15 1016.00 1016.31 1016.92 1016.88
1019.32 1019.07 1018.88 1018.57 1018.76 1019.19 1019.62 1019.96 1020.02 1020.07 1020.06 1020.63 1021.07 1021.42 1021.48 1021.73 1022.00 1020.92 1019.72 1018.53 1017.86 1017.54 1017.58 1017.74 1017.67 1017.45 1017.51 1017.49 1017.34 1016.62 1016.04 1015.68 1015.77 1016.03 1016.10 1015.95 1016.26 1016.54 1016.33 1016.57 1016.40 1016.20 1015.61 1016.00 1016.10 1016.09 1016.36
1018.66 1018.51 1018.40 1018.34 1018.03 1018.38 1018.85 1019.27 1019.53 1019.75 1019.78 1020.28 1021.03 1021.44 1021.65 1021.63 1021.36 1020.40 1019.31 1018.05 1017.47 1017.02 1017.15 1017.18 1017.23 1017.18 1017.38 1017.36 1017.03 1016.81 1016.28 1015.78 1015.85 1015.93 1015.95 1016.03 1016.03 1015.77 1015.53 1015.17 1014.99 1015.31 1015.27 1015.52 1015.99 1016.33 1016.10
1018.27 1017.97 1017.73 1017.57 1017.61 1017.48 1017.93 1018.46 1018.77 1019.19 1019.51 1020.04 1020.54 1020.25 1019.53 1020.33 1020.54 1019.77 1018.61 1017.77 1017.10 1016.95 1017.05 1017.00 1017.09 1017.12 1017.26 1017.48 1017.10 1016.92 1016.57 1016.31 1015.95 1016.19 1016.37 1016.57 1016.35 1015.76 1015.07 1015.01 1014.82 1014.60 1014.50 1014.75 1015.20 1015.12 1015.65
1017.80 1017.39 1016.99 1016.90 1016.86 1016.90 1017.00 1017.35 1017.95 1018.48 1018.96 1019.56 1019.81 1019.59 1019.57 1019.10 1018.94 1019.28 1018.11 1017.35 1016.56 1016.45 1016.63 1016.82 1017.11 1016.89 1017.19 1017.41 1016.89 1016.83 1016.79 1016.77 1016.72 1016.69 1016.75 1016.93 1016.59 1016.09 1015.33 1014.76 1014.52 1014.25 1013.98 1014.13 1014.48 1014.66 1014.95
1016.78 1016.62 1016.33 1016.14 1016.01 1016.13 1016.07 1016.30 1016.91 1017.47 1018.09 1018.59 1018.56 1018.61 1018.38 1018.37 1018.51 1018.87 1016.93 1016.19 1015.89 1015.93 1015.95 1016.12 1016.58 1016.97 1017.18 1016.87 1016.61 1016.57 1016.70 1016.80 1016.93 1017.23 1017.32 1017.35 1017.06 1016.60 1015.56 1014.85 1014.30 1014.08 1013.37 1013.56 1013.73 1013.84 1014.15
1015.75 1015.61 1015.47 1015.18 1014.95 1015.11 1015.11 1015.02 1015.54 1016.19 1016.69 1017.57 1017.22 1017.60 1018.06 1017.84 1017.53 1017.36 1016.14 1015.57 1015.70 1015.65 1015.79 1016.09 1016.48 1016.88 1016.83 1016.68 1016.63 1016.65 1016.74 1016.75 1016.93 1017.04 1017.27 1017.42 1017.38 1016.91 1015.93 1014.87 1014.17 1013.08 1012.79 1012.86 1013.05 1013.22 1013.70
1014.50 1014.25 1014.04 1013.93 1013.84 1013.80 1013.87 1013.71 1014.14 1014.69 1015.59 1016.47 1016.66 1016.91 1017.11 1016.81 1016.16 1016.12 1015.93 1015.15 1015.53 1015.58 1015.87 1015.89 1016.24 1016.54 1016.73 1016.86 1017.03 1016.69 1016.61 1016.54 1016.49 1016.72 1017.12 1017.31 1017.17 1016.84 1016.00 1014.87 1013.56 1012.81 1012.73 1012.72 1012.72 1013.04 1013.27
1012.54 1012.31 1012.11 1012.12 1012.15 1012.32 1012.33 1012.45 1012.50 1013.10 1014.29 1015.40 1015.85 1015.75 1016.21 1016.18 1014.88 1014.61 1015.20 1014.70 1015.32 1015.69 1016.03 1015.95 1016.28 1016.53 1016.78 1017.33 1017.39 1017.19 1016.74 1016.42 1016.35 1016.40 1016.69 1016.92 1016.76 1016.53 1015.74 1014.76 1013.47 1012.50 1012.23 1012.14 1012.29 1012.95 1013.20
1010.51 1009.82 1009.61 1009.86 1010.11 1010.40 1010.74 1011.00 1010.93 1011.50 1012.95 1014.15 1014.40 1014.76 1015.26 1015.50 1014.12 1014.17 1014.52 1014.13 1014.47 1015.23 1015.55 1015.96 1016.32 1016.79 1016.88 1017.51 1017.61 1017.40 1016.93 1016.53 1016.42 1016.24 1016.27 1016.54 1016.64 1016.38 1015.65 1014.64 1013.42 1012.50 1012.32 1012.35 1012.65 1013.70 1013.18
1006.62 1004.10 1004.13 1005.53 1006.95 1008.08 1008.75 1009.43 1009.51 1010.09 1011.57 1012.88 1013.31 1013.62 1013.80 1014.48 1014.16 1013.94 1014.26 1014.06 1014.49 1014.74 1015.19 1015.86 1016.39 1016.85 1017.32 1017.45 1017.64 1017.41 1017.27 1016.87 1016.65 1015.97 1015.90 1016.06 1016.18 1016.05 1015.39 1014.48 1013.66 1012.68 1012.72 1012.77 1013.11 1013.00 1013.31
999.04 997.04 996.71 999.64 1002.85 1005.05 1006.59 1007.42 1007.85 1009.30 1010.46 1011.74 1012.57 1013.04 1013.27 1014.12 1014.48 1014.39 1014.74 1014.43 1014.14 1014.33 1014.59 1015.42 1015.49 1015.64 1016.01 1016.77 1017.26 1017.43 1017.25 1017.22 1016.91 1016.43 1015.74 1015.77 1015.51 1015.37 1014.93 1013.87 1013.03 1012.84 1012.82 1012.78 1012.87 1013.00 1013.43
Wind_Speed
9 9 10 10 11 10 11 11 10 9 9 9 9 10 12 14 14 15 15 14 14 11 9 8 8 12 4 3 5 5 16 14 7 1 11 7 6 3 4 4 3 3 3 5 7 5 5
11 11 11 12 12 11 11 11 11 10 10 10 9 11 11 13 15 15 15 14 14 10 6 4 5 8 1 3 2 5 7 7 6 2 4 6 3 3 3 3 5 3 3 5 7 10 3
10 11 11 11 13 12 12 10 9 10 10 10 10 11 11 13 15 15 14 14 14 10 4 2 3 2 1 8 2 4 6 3 5 3 4 3 3 2 1 3 1 4 7 7 5 3 6
9 10 11 11 12 12 12 12 11 11 10 11 11 11 11 12 14 15 15 14 13 10 3 1 3 3 5 3 3 3 5 3 4 2 1 3 4 3 2 4 1 1 2 3 4 2 5
9 10 11 12 12 13 12 12 12 12 11 11 11 11 11 12 13 14 15 16 14 6 1 1 2 2 7 4 3 4 1 2 4 3 1 3 2 1 1 4 2 3 3 4 6 6 4
7 9 11 12 13 13 14 13 13 13 12 11 11 12 12 12 12 12 15 17 6 2 2 2 2 2 2 4 4 4 2 2 2 3 1 3 2 2 2 3 7 4 3 4 4 3 3
7 7 9 11 12 13 14 15 14 14 13 13 12 12 12 12 11 11 9 4 5 4 2 5 3 4 3 3 1 2 2 2 1 2 1 3 2 6 7 10 8 4 3 5 3 7 4
8 7 8 9 10 11 14 14 15 15 15 14 14 14 14 13 11 12 2 3 2 3 6 3 2 4 3 3 2 2 1 1 1 1 3 2 5 8 8 7 10 13 7 6 6 8 6
8 10 10 9 10 11 11 13 14 15 16 15 15 15 15 13 12 3 2 1 1 3 0 4 4 3 2 4 2 2 3 2 3 2 4 5 2 4 6 9 12 10 11 4 6 3 3
12 12 11 11 11 11 11 11 13 15 15 15 15 16 14 13 3 2 2 2 1 2 5 5 3 3 2 1 3 2 1 3 2 3 3 7 1 7 5 4 8 10 12 11 8 0 4
12 12 10 11 11 11 12 12 13 13 14 14 15 16 12 6 3 1 1 3 2 4 5 3 2 1 1 3 2 3 1 1 3 2 1 3 2 6 9 7 8 7 12 10 5 5 1
11 13 12 12 11 11 12 12 12 13 14 13 15 15 11 2 3 3 2 3 3 8 6 2 3 2 1 3 2 1 1 2 1 4 6 8 4 4 4 1 11 3 2 4 1 2 2
12 13 13 14 12 11 11 11 11 13 13 13 14 15 7 1 3 3 2 3 7 6 3 2 3 3 4 4 3 4 3 4 4 2 3 2 4 4 4 2 4 5 4 3 3 1 4
14 14 13 13 13 12 12 11 12 11 11 11 13 9 4 3 2 3 3 5 5 4 6 3 2 2 5 4 3 5 3 5 7 4 2 2 2 1 4 5 3 7 2 4 4 4 3
16 15 14 14 13 13 12 12 13 9 8 8 7 2 3 3 3 2 5 4 8 7 1 5 6 2 3 2 3 3 7 4 6 10 4 2 3 1 2 2 1 3 2 3 6 2 1
18 17 16 15 14 12 12 12 11 9 7 6 2 2 3 3 1 4 4 6 4 4 3 2 2 2 3 3 2 2 5 4 2 8 1 2 1 2 1 3 2 1 2 2 2 2 3
17 19 18 17 14 11 10 11 9 8 6 5 3 3 1 4 2 4 4 7 5 6 4 5 3 4 5 4 2 3 4 3 2 2 7 3 3 2 2 1 2 2 1 2 3 2 1
18 19 18 18 16 13 10 10 7 6 2 3 3 0 1 3 0 1 3 6 4 3 3 4 3 6 4 3 3 4 4 5 5 5 5 6 3 1 6 3 2 4 5 5 3 5 3
20 18 17 18 18 14 12 10 9 5 4 3 3 1 2 5 5 4 5 4 5 4 5 5 4 6 3 4 3 4 3 1 5 5 6 5 3 1 2 2 4 5 5 3 2 1 4
20 20 19 18 19 17 14 12 11 8 9 4 3 0 1 2 2 4 4 4 3 4 3 4 4 2 1 3 5 4 3 1 1 2 2 1 3 5 5 3 2 4 5 5 4 2 3
22 22 20 18 17 20 17 14 13 11 12 4 2 6 4 4 6 6 4 3 4 3 3 4 2 5 5 3 3 4 2 5 1 5 3 1 4 3 4 4 3 3 5 9 11 9 3
21 24 23 22 20 21 20 18 16 14 17 2 4 4 1 2 2 6 5 6 8 4 7 4 5 2 6 6 6 4 2 2 3 4 1 1 3 1 4 3 6 4 3 6 4 2 4
23 24 25 25 22 20 23 21 19 19 12 3 3 2 5 3 3 3 7 7 8 7 4 3 5 1 4 8 5 4 4 2 3 2 2 1 2 1 4 1 1 4 6 5 3 3 7
27 28 27 28 24 23 25 24 22 22 20 4 4 4 4 5 5 6 5 7 8 7 5 2 4 4 2 2 2 0 2 5 5 4 4 1 1 1 4 1 1 3 0 2 3 2 4
31 30 30 29 28 27 25 28 26 24 27 4 3 4 4 4 5 4 7 5 3 2 4 4 5 4 2 3 2 4 2 2 3 5 5 4 3 1 2 1 3 1 3 5 5 1 5
33 34 33 30 30 29 25 31 29 25 26 6 4 3 3 3 7 3 5 6 5 4 1 3 2 3 4 3 2 1 3 1 1 1 3 3 1 3 1 2 2 3 2 4 2 4 6
39 38 38 37 35 34 27 34 30 26 25 7 4 7 4 4 4 6 5 6 6 2 3 2 5 2 2 2 1 3 3 1 1 2 3 1 2 1 1 1 5 3 1 1 3 5 5
51 55 51 47 42 37 28 34 33 26 27 10 2 6 6 4 3 2 3 4 3 3 5 5 4 1 2 2 3 2 2 2 1 3 2 3 3 2 2 2 2 2 1 2 4 2 4
45 38 38 44 44 39 30 37 31 27 26 15 3 3 3 3 1 2 1 1 2 1 5 2 2 4 5 4 1 3 2 1 1 3 1 2 4 3 6 5 2 4 2 1 3 2 4
Wind_Direction
13 10 19 10 358 358 350 341 335 330 322 316 316 312 314 313 316 321 319 327 332 333 350 347 346 344 10 350 258 320 330 322 336 244 179 191 193 205 188 195 197 225 257 267 261 313 290
14 12 7 6 8 359 349 350 337 331 321 317 314 310 314 312 313 314 317 324 324 335 343 334 331 346 47 287 281 322 328 334 5 6 129 164 209 208 251 207 181 220 214 272 273 258 275
357 353 353 353 356 357 355 350 349 335 326 322 316 316 311 316 310 308 314 316 324 328 337 317 333 63 296 250 304 320 354 326 332 326 156 185 194 190 197 274 20 262 273 305 249 247 237
344 344 347 348 343 346 348 346 354 342 336 327 318 317 323 313 308 308 309 311 312 312 321 288 359 84 248 274 298 321 337 317 355 343 87 158 185 183 228 323 25 239 177 257 307 182 241
344 347 344 342 340 338 338 343 343 343 346 338 328 319 316 317 314 307 307 303 300 296 256 123 118 94 281 314 5 312 341 332 328 5 19 82 106 223 91 234 298 276 249 234 304 206 230
328 336 335 332 334 333 332 335 336 338 339 341 338 328 319 316 316 317 315 292 288 347 75 96 91 59 295 305 288 310 288 321 350 317 21 48 43 193 171 225 222 202 221 219 208 292 207
310 314 326 328 329 331 328 333 332 331 332 332 334 331 324 317 315 325 337 7 14 352 59 219 225 233 278 272 249 308 347 329 347 261 92 23 235 234 230 201 257 285 310 274 230 251 238
282 296 312 320 332 332 335 330 329 325 325 326 326 326 324 319 312 316 289 91 189 188 309 243 226 270 258 159 263 227 9 191 102 271 352 210 246 250 292 260 222 236 261 287 269 253 186
280 293 302 309 317 321 327 327 327 325 325 327 324 324 323 316 314 360 215 153 191 137 12 303 211 220 234 177 253 228 118 316 225 191 231 254 268 154 240 236 229 225 223 232 248 314 221
279 288 294 303 311 315 322 320 324 326 327 323 321 325 325 322 322 266 274 142 148 91 60 281 306 308 131 188 264 147 310 136 244 264 231 263 226 203 204 239 225 231 205 234 273 317 247
282 282 289 296 304 309 317 324 325 325 323 321 317 325 324 325 294 157 248 133 114 63 24 242 214 167 133 201 148 223 18 234 213 264 277 261 203 233 251 222 200 235 181 202 256 213 87
254 273 279 285 293 301 311 318 317 319 319 320 322 323 320 312 256 250 156 103 51 47 269 325 165 251 270 211 251 35 217 46 44 269 219 260 302 262 246 134 213 256 153 108 139 155 214
245 257 267 276 283 289 297 308 316 317 316 322 321 315 288 221 254 146 110 46 40 122 281 237 261 172 222 228 210 208 232 211 214 260 244 205 229 235 125 339 21 241 219 132 180 250 231
237 244 252 259 272 285 293 299 307 310 321 324 326 340 275 233 278 145 67 52 92 242 253 338 281 252 228 165 209 195 239 267 224 175 270 243 329 284 129 216 206 214 141 153 168 192 238
239 240 241 244 254 275 287 296 304 313 320 328 358 359 279 273 179 44 82 66 209 199 236 319 319 301 277 249 207 163 216 234 210 180 178 163 290 260 8 331 90 195 187 187 106 51 42
254 234 235 240 250 259 277 293 303 310 324 354 78 18 262 314 149 55 83 237 234 208 167 133 258 191 282 281 236 209 202 204 244 190 189 250 8 3 317 291 62 79 157 86 16 134 274
308 256 233 233 237 242 252 279 290 304 338 104 87 66 349 338 36 49 192 229 251 229 184 170 230 274 243 280 236 252 248 276 200 183 160 182 174 288 353 238 204 6 322 24 114 146 160
294 304 263 230 230 227 234 257 259 285 49 71 110 73 14 20 299 253 216 199 227 241 155 234 210 213 229 280 266 263 247 220 177 163 188 212 134 175 230 206 204 222 238 189 159 199 133
293 297 305 253 227 220 218 238 237 242 151 138 150 195 51 87 244 226 266 257 223 193 203 185 241 204 168 251 282 227 272 162 177 172 185 201 219 347 353 11 174 222 197 123 108 35 201
297 286 291 302 232 216 208 216 220 220 164 109 113 136 331 111 270 251 237 233 243 194 231 189 241 171 183 254 216 276 281 281 315 221 211 119 230 199 202 204 157 190 184 173 150 112 228
306 295 285 282 288 217 207 207 210 202 170 108 147 232 190 189 245 227 181 232 183 233 211 197 261 222 183 268 260 230 251 316 285 356 111 153 258 186 263 210 219 262 218 180 194 203 210
294 297 284 277 273 250 210 200 205 195 163 151 168 173 136 246 105 178 189 239 191 212 166 225 209 199 183 206 213 253 180 203 258 338 353 357 275 111 281 212 223 263 256 193 206 169 246
292 294 287 284 269 275 221 200 201 192 165 193 194 255 118 198 150 213 214 212 205 160 195 185 188 167 233 243 228 224 203 185 199 204 282 278 226 119 272 4 273 281 218 187 186 182 155
290 288 282 283 259 259 243 204 201 194 184 177 196 130 129 247 169 209 224 175 196 200 176 172 151 153 244 300 311 59 244 228 199 232 178 212 164 150 257 27 340 254 278 227 223 198 177
283 279 277 274 263 257 252 209 203 195 193 155 185 148 167 228 185 235 218 164 133 137 194 184 208 195 128 45 7 335 318 283 207 196 198 200 143 308 97 217 272 183 212 182 186 218 189
276 277 263 257 254 252 246 218 201 194 195 170 196 149 146 147 231 164 178 171 165 184 229 203 92 153 82 90 84 260 239 261 284 278 148 124 83 130 55 18 24 246 231 216 211 357 180
282 267 260 253 247 244 239 220 201 188 188 165 206 170 130 183 237 145 204 179 136 137 138 143 162 137 59 115 181 204 272 196 284 250 207 340 6 127 2 285 298 262 218 248 78 227 150
292 269 251 237 229 227 227 215 205 184 179 173 180 184 147 181 252 159 234 141 114 159 162 170 94 330 71 145 166 216 190 246 322 237 224 198 140 211 128 75 2 154 53 49 228 12 150
302 272 237 211 207 207 219 208 187 179 174 188 137 171 137 129 162 61 358 6 65 57 132 180 185 150 175 103 190 120 201 62 148 299 22 313 187 204 177 212 229 227 195 218 188 153 179